星链-35033 (STARLINK-35033)

导读

STARLINK-35033是美国SpaceX星链计划中的一颗卫星,于2025年9月3日发射升空。星链项目旨在构建全球卫星互联网星座,为全球偏远地区及网络欠发达区域提供高速宽带服务,该卫星加入星座后将进一步提升星链网络的覆盖范围与服务容量,推动全球互联基础设施建设。

基本信息
目录编号:
65468
目录名称:
STARLINK-35033
国际标识:
2025-195L
轨道中心:
EARTH
卫星名称:
星链-35033
卫星全名:
星链-35033 (STARLINK-35033)
卫星状态:
在轨 (已飞行367 天)
发射日期:
2025-09-03 UTC
国别 :
美国 (US)
星等 :
--
轨道信息
数据来源 国际轨道数据 AOE轨道数据
星历时间 2026-09-04T18:21:13+0800
21小时前
查看轨道信息
2026-09-03T23:00:00+0800
1天前
查看轨道信息
半长轴 6848.861km 6848.791km
偏心率 0.0001408 0.0001494
轨道倾角 53.158° 53.160°
近地点辐角 81.829° 66.693°
升交点赤经 146.256° 150.011°
平近点角 278.287° 164.369°
近地点 469.759km 469.63km
远地点 471.689km 471.678km
周期 94.013分钟 94.011分钟
每日圈数 15.317056 15.317291
详细信息
固有亮度:
5
最大亮度:
2.5
卫星平台:
Starlink V1.0
覆盖范围:
全球
运营商:
太空探索技术公司
运营商所在国:
美国
制造商(研发单位):
太空探索技术公司
制造商所在国:
美国
使用方式:
暂无
卫星简介
Starlink 计划是 SpaceX 推出的全球卫星互联网项目,通过发射低轨道卫星,为全球尤其是偏远地区提供高速、低延迟的互联网服务。自 2019 年起,Starlink 已部署数千颗卫星,旨在缩小全球数字鸿沟,推动互联网普及。该项目还为军事、航空等行业提供通信支持,带来广泛经济效益。
2D轨道图
3D轨道图
轨道高度分析图
轨道倾角分析图
轨道综合分析图
查看轨道综合分析图
交会数据列表
事件ID 空间交会对象 最接近时刻(TCA) 交会距离 交会风险概率(CRP) 交会风险指数(CRI) 操作
CDM_260905-123205-912406-546821
VSP ROSE (59124)
2026-09-05T
12:32:36+0000
2.138 km
极远距离
2.220845E-6 低风险 0.42
CDM_260906-202606-264806-546821
LIME (62648)
2026-09-06T
20:26:00+0000
2.540 km
极远距离
1.695452E-6 低风险 0.4
CDM_260905-071406-546806-971621
2026-09-05T
07:14:24+0000
2.678 km
极远距离
1.521259E-6 低风险 0.39
CDM_260906-201206-435906-546821
2026-09-06T
20:12:36+0000
2.644 km
极远距离
1.497286E-6 低风险 0.39
CDM_260906-125305-636206-546821
2026-09-06T
12:53:00+0000
2.604 km
极远距离
1.484352E-6 低风险 0.38
CDM_260907-043806-546806-930821
2026-09-07T
04:38:58+0000
2.734 km
极远距离
1.472678E-6 低风险 0.38
CDM_260907-053905-368006-546821
2026-09-07T
05:39:14+0000
2.958 km
极远距离
8.038622E-7 极低风险 0.33